This is the latest recevied weather packets stored in our database for station/object N4TLC. If no packets are shown the sender has not sent any weather packets the latest 10 day(s).
| Time | Temp. | Humidity | Pressure | Rain* | Wind** | Luminosity | Snow |
|---|---|---|---|---|---|---|---|
| 1777979620 | 12.78° C | 79% | 1018 hPa | 0 mm | - | 33 W/m² | - |
| 1777979317 | 12.22° C | 79% | 1018 hPa | 0 mm | - | 29 W/m² | - |
| 1777979014 | 12.22° C | 80% | 1018.1 hPa | 0 mm | - | 24 W/m² | - |
| 1777978711 | 11.67° C | 81% | 1018.1 hPa | 0 mm | - | 20 W/m² | - |
| 1777978407 | 11.67° C | 82% | 1018.1 hPa | 0 mm | - | 16 W/m² | - |
| 1777978103 | 11.11° C | 84% | 1018 hPa | 0 mm | - | 14 W/m² | - |
| 1777977801 | 11.11° C | 84% | 1018 hPa | 0 mm | - | 12 W/m² | - |
| 1777977497 | 11.11° C | 83% | 1017.8 hPa | 0 mm | - | 9 W/m² | - |
| 1777977195 | 11.11° C | 83% | 1018 hPa | 0 mm | - | 6 W/m² | - |
| 1777976892 | 11.11° C | 82% | 1017.9 hPa | 0 mm | - | 4 W/m² | - |
| 1777976589 | 11.11° C | 81% | 1017.9 hPa | 0 mm | - | 2 W/m² | - |
| 1777976289 | 11.67° C | 80% | 1017.8 hPa | 0 mm | - | 1 W/m² | - |
| 1777975984 | 11.67° C | 80% | 1017.8 hPa | 0 mm | - | 0 W/m² | - |
| 1777975681 | 11.67° C | 80% | 1017.7 hPa | 0 mm | - | 0 W/m² | - |
| 1777975377 | 11.67° C | 81% | 1017.7 hPa | 0 mm | - | 0 W/m² | - |
| 1777975073 | 11.11° C | 81% | 1017.7 hPa | 0 mm | - | 0 W/m² | - |
| 1777974771 | 11.11° C | 81% | 1017.6 hPa | 0 mm | - | 0 W/m² | - |
| 1777974466 | 11.11° C | 81% | 1017.6 hPa | 0 mm | - | 0 W/m² | - |
| 1777974163 | 11.11° C | 81% | 1017.6 hPa | 0 mm | - | 0 W/m² | - |
| 1777973859 | 11.11° C | 81% | 1017.5 hPa | 0 mm | - | 0 W/m² | - |
| 1777973557 | 11.11° C | 80% | 1017.6 hPa | 0 mm | - | 0 W/m² | - |
| 1777973254 | 11.11° C | 80% | 1017.5 hPa | 0 mm | - | 0 W/m² | - |
| 1777972952 | 11.11° C | 79% | 1017.7 hPa | 0 mm | - | 0 W/m² | - |
| 1777972649 | 11.11° C | 79% | 1017.6 hPa | 0 mm | - | 0 W/m² | - |
| 1777972347 | 11.67° C | 78% | 1017.3 hPa | 0 mm | - | 0 W/m² | - |
* Rain latest hour (hover to see other rain measurements)
** Current wind speed in m/s (hover to see current wind gust speed)